Location: Colossi of Memnon
(25.7167°N, 32.6167°E)
Time: 01:44:45
(UTC+00:00)

Orbus 7S - Pass Details

Date: 05 March 2021
Orbit: 359 x 12746 km, 26.9° (Epoch: 21 April)

Event Time Altitude Azimuth Distance (km) Brightness Sun altitude
Exits shadow 02:36:12 35° 138° (SE) 613 4.3 -21.7°
Drops below altitude 10° 02:38:07 10° 93° (E) 1,325 6.9 -21.3°
Sets 02:40:07 0° 84° (E) 2,305 8.6 -20.8°
